Time,TemperatureF,DewpointF,PressureIn,WindDirection,WindDirectionDegrees,WindSpeedMPH,WindSpeedGustMPH,Humidity,HourlyPrecipIn,Conditions,Clouds,dailyrainin,SoftwareType,DateUTC
2013-07-24 00:04:00,59.8,51.9,29.76,North,355,0.0,0.0,75,0.00,CLR,SKC,0.00,WeatherDisplay:10.37,2013-07-24 05:04:00,
2013-07-24 00:09:00,59.6,51.7,29.76,North,355,0.0,0.0,75,0.00,CLR,SKC,0.00,WeatherDisplay:10.37,2013-07-24 05:09:00,
2013-07-24 00:14:00,59.5,51.6,29.76,North,355,0.0,0.0,75,0.00,CLR,SKC,0.00,WeatherDisplay:10.37,2013-07-24 05:14:00,
2013-07-24 00:19:00,59.3,51.4,29.76,North,355,0.0,0.0,75,0.00,CLR,SKC,0.00,WeatherDisplay:10.37,2013-07-24 05:19:00,
2013-07-24 00:24:00,59.0,51.1,29.76,North,355,0.0,0.0,75,0.00,CLR,SKC,0.00,WeatherDisplay:10.37,2013-07-24 05:24:00,
2013-07-24 00:29:00,58.8,50.9,29.76,North,355,0.0,1.2,75,0.00,CLR,SKC,0.00,WeatherDisplay:10.37,2013-07-24 05:29:00,
2013-07-24 00:34:00,58.6,50.7,29.76,North,355,0.0,0.0,75,0.00,CLR,SKC,0.00,WeatherDisplay:10.37,2013-07-24 05:34:00,
2013-07-24 00:39:00,58.6,50.7,29.76,North,355,0.0,0.0,75,0.00,CLR,SKC,0.00,WeatherDisplay:10.37,2013-07-24 05:39:00,
2013-07-24 00:44:00,58.9,51.0,29.76,North,355,0.0,0.0,75,0.00,CLR,SKC,0.00,WeatherDisplay:10.37,2013-07-24 05:44:00,
2013-07-24 00:49:00,59.0,51.1,29.76,North,355,0.0,0.0,75,0.00,CLR,SKC,0.00,WeatherDisplay:10.37,2013-07-24 05:49:00,
2013-07-24 00:54:00,59.2,51.3,29.76,North,355,0.0,0.0,75,0.00,CLR,SKC,0.00,WeatherDisplay:10.37,2013-07-24 05:54:00,
2013-07-24 00:59:00,59.3,51.4,29.76,North,355,0.0,0.0,75,0.00,CLR,SKC,0.00,WeatherDisplay:10.37,2013-07-24 05:59:00,
2013-07-24 01:04:00,59.3,51.4,29.76,North,355,0.0,0.0,75,0.00,CLR,SKC,0.00,WeatherDisplay:10.37,2013-07-24 06:04:00,
2013-07-24 01:09:00,59.3,51.4,29.76,North,355,0.0,0.0,75,0.00,CLR,SKC,0.00,WeatherDisplay:10.37,2013-07-24 06:09:00,
2013-07-24 01:14:00,59.3,51.7,29.76,North,355,0.0,0.0,76,0.00,CLR,SKC,0.00,WeatherDisplay:10.37,2013-07-24 06:14:00,
2013-07-24 01:19:00,59.1,51.2,29.76,North,355,0.0,0.0,75,0.00,CLR,SKC,0.00,WeatherDisplay:10.37,2013-07-24 06:19:00,
2013-07-24 01:24:00,58.9,51.0,29.76,North,355,0.0,0.0,75,0.00,CLR,SKC,0.00,WeatherDisplay:10.37,2013-07-24 06:24:00,
2013-07-24 01:29:00,58.5,50.6,29.76,North,355,0.0,0.0,75,0.00,CLR,SKC,0.00,WeatherDisplay:10.37,2013-07-24 06:29:00,
2013-07-24 01:34:00,58.2,50.3,29.76,North,355,0.0,0.0,75,0.00,CLR,SKC,0.00,WeatherDisplay:10.37,2013-07-24 06:34:00,
2013-07-24 01:39:00,58.1,50.2,29.76,North,355,0.0,0.0,75,0.00,CLR,SKC,0.00,WeatherDisplay:10.37,2013-07-24 06:39:00,
2013-07-24 01:44:00,58.0,50.1,29.76,North,355,0.0,0.0,75,0.00,CLR,SKC,0.00,WeatherDisplay:10.37,2013-07-24 06:44:00,
2013-07-24 01:49:00,57.9,50.0,29.76,North,355,0.0,0.0,75,0.00,CLR,SKC,0.00,WeatherDisplay:10.37,2013-07-24 06:49:00,
2013-07-24 01:54:00,57.8,49.9,29.76,North,355,0.0,0.0,75,0.00,CLR,SKC,0.00,WeatherDisplay:10.37,2013-07-24 06:54:00,
2013-07-24 01:59:00,57.6,49.7,29.76,North,355,0.0,0.0,75,0.00,CLR,SKC,0.00,WeatherDisplay:10.37,2013-07-24 06:59:00,
2013-07-24 02:04:00,57.5,49.6,29.76,North,355,0.0,0.0,75,0.00,CLR,SKC,0.00,WeatherDisplay:10.37,2013-07-24 07:04:00,
2013-07-24 02:09:00,57.4,49.5,29.76,North,355,0.0,0.0,75,0.00,CLR,SKC,0.00,WeatherDisplay:10.37,2013-07-24 07:09:00,
2013-07-24 02:14:00,57.3,49.4,29.76,North,355,0.0,0.0,75,0.00,CLR,SKC,0.00,WeatherDisplay:10.37,2013-07-24 07:14:00,
2013-07-24 02:19:00,57.4,49.5,29.76,North,355,0.0,0.0,75,0.00,CLR,SKC,0.00,WeatherDisplay:10.37,2013-07-24 07:19:00,
2013-07-24 02:24:00,57.3,49.4,29.76,North,355,0.0,0.0,75,0.00,CLR,SKC,0.00,WeatherDisplay:10.37,2013-07-24 07:24:00,
2013-07-24 02:29:00,57.3,49.4,29.76,North,355,0.0,0.0,75,0.00,CLR,SKC,0.00,WeatherDisplay:10.37,2013-07-24 07:29:00,
2013-07-24 02:34:00,57.2,49.3,29.76,North,355,0.0,0.0,75,0.00,CLR,SKC,0.00,WeatherDisplay:10.37,2013-07-24 07:34:00,
2013-07-24 02:39:00,57.2,49.3,29.76,North,355,0.0,0.0,75,0.00,CLR,SKC,0.00,WeatherDisplay:10.37,2013-07-24 07:39:00,
2013-07-24 02:44:00,57.2,49.3,29.76,North,355,0.0,0.0,75,0.00,CLR,SKC,0.00,WeatherDisplay:10.37,2013-07-24 07:44:00,
2013-07-24 02:49:00,57.0,49.5,29.76,North,355,0.0,0.0,76,0.00,CLR,SKC,0.00,WeatherDisplay:10.37,2013-07-24 07:49:00,
2013-07-24 02:54:00,56.6,49.1,29.76,North,355,0.0,0.0,76,0.00,CLR,SKC,0.00,WeatherDisplay:10.37,2013-07-24 07:54:00,
2013-07-24 02:59:00,56.2,48.7,29.77,North,355,0.0,0.0,76,0.00,CLR,SKC,0.00,WeatherDisplay:10.37,2013-07-24 07:59:00,
2013-07-24 03:04:00,55.9,48.1,29.77,North,355,0.0,0.0,75,0.00,CLR,SKC,0.00,WeatherDisplay:10.37,2013-07-24 08:04:00,
2013-07-24 03:09:00,55.7,47.9,29.77,North,355,0.0,0.0,75,0.00,CLR,SKC,0.00,WeatherDisplay:10.37,2013-07-24 08:09:00,
2013-07-24 03:14:00,55.4,47.6,29.78,North,355,0.0,0.0,75,0.00,CLR,SKC,0.00,WeatherDisplay:10.37,2013-07-24 08:14:00,
2013-07-24 03:19:00,55.3,47.5,29.78,North,355,0.0,0.0,75,0.00,CLR,SKC,0.00,WeatherDisplay:10.37,2013-07-24 08:19:00,
2013-07-24 03:24:00,55.2,47.1,29.78,North,355,0.0,0.0,74,0.00,CLR,SKC,0.00,WeatherDisplay:10.37,2013-07-24 08:24:00,
2013-07-24 03:29:00,55.1,47.3,29.78,North,355,0.0,0.0,75,0.00,CLR,SKC,0.00,WeatherDisplay:10.37,2013-07-24 08:29:00,
2013-07-24 03:34:00,55.0,47.2,29.77,North,355,0.0,0.0,75,0.00,CLR,SKC,0.00,WeatherDisplay:10.37,2013-07-24 08:34:00,
2013-07-24 03:39:00,54.8,47.0,29.78,North,355,0.0,1.2,75,0.00,CLR,SKC,0.00,WeatherDisplay:10.37,2013-07-24 08:39:00,
2013-07-24 03:44:00,54.6,46.8,29.78,North,355,0.9,2.3,75,0.00,CLR,SKC,0.00,WeatherDisplay:10.37,2013-07-24 08:44:00,
2013-07-24 03:49:00,54.5,46.4,29.78,North,355,0.0,0.0,74,0.00,CLR,SKC,0.00,WeatherDisplay:10.37,2013-07-24 08:49:00,
2013-07-24 03:54:00,54.4,46.3,29.78,North,355,0.0,0.0,74,0.00,CLR,SKC,0.00,WeatherDisplay:10.37,2013-07-24 08:54:00,
2013-07-24 03:59:00,54.3,46.5,29.78,North,355,0.0,0.0,75,0.00,CLR,SKC,0.00,WeatherDisplay:10.37,2013-07-24 08:59:00,
2013-07-24 04:04:00,54.1,46.3,29.78,North,355,0.0,0.0,75,0.00,CLR,SKC,0.00,WeatherDisplay:10.37,2013-07-24 09:04:00,
2013-07-24 04:09:00,53.8,46.1,29.78,North,355,0.0,0.0,75,0.00,CLR,SKC,0.00,WeatherDisplay:10.37,2013-07-24 09:09:00,
2013-07-24 04:14:00,53.9,45.8,29.78,North,355,0.0,0.0,74,0.00,CLR,SKC,0.00,WeatherDisplay:10.37,2013-07-24 09:14:00,
2013-07-24 04:19:00,54.1,45.6,29.78,North,355,0.0,0.0,73,0.00,CLR,SKC,0.00,WeatherDisplay:10.37,2013-07-24 09:19:00,
2013-07-24 04:24:00,54.4,45.9,29.78,North,355,0.0,0.0,73,0.00,CLR,SKC,0.00,WeatherDisplay:10.37,2013-07-24 09:24:00,
2013-07-24 04:29:00,54.7,46.2,29.78,North,355,0.0,0.0,73,0.00,CLR,SKC,0.00,WeatherDisplay:10.37,2013-07-24 09:29:00,
2013-07-24 04:34:00,54.8,46.7,29.78,North,355,0.0,0.0,74,0.00,CLR,SKC,0.00,WeatherDisplay:10.37,2013-07-24 09:34:00,
2013-07-24 04:39:00,54.8,46.7,29.78,North,355,0.0,0.0,74,0.00,CLR,SKC,0.00,WeatherDisplay:10.37,2013-07-24 09:39:00,
2013-07-24 04:44:00,54.9,46.8,29.79,North,355,0.0,0.0,74,0.00,CLR,SKC,0.00,WeatherDisplay:10.37,2013-07-24 09:44:00,
2013-07-24 04:49:00,55.0,46.9,29.78,North,355,0.0,0.0,74,0.00,CLR,SKC,0.00,WeatherDisplay:10.37,2013-07-24 09:49:00,
2013-07-24 04:54:00,55.0,46.9,29.78,North,355,0.0,0.0,74,0.00,CLR,SKC,0.00,WeatherDisplay:10.37,2013-07-24 09:54:00,
2013-07-24 04:59:00,55.0,46.9,29.78,North,355,0.0,0.0,74,0.00,CLR,SKC,0.00,WeatherDisplay:10.37,2013-07-24 09:59:00,
2013-07-24 05:04:00,55.0,46.9,29.78,North,355,0.0,0.0,74,0.00,CLR,SKC,0.00,WeatherDisplay:10.37,2013-07-24 10:04:00,
2013-07-24 05:09:00,54.9,47.1,29.78,North,355,0.0,0.0,75,0.00,CLR,SKC,0.00,WeatherDisplay:10.37,2013-07-24 10:09:00,
2013-07-24 05:14:00,54.7,46.9,29.78,North,355,0.0,0.0,75,0.00,CLR,SKC,0.00,WeatherDisplay:10.37,2013-07-24 10:14:00,
2013-07-24 05:19:00,54.6,46.8,29.78,North,355,0.0,0.0,75,0.00,CLR,SKC,0.00,WeatherDisplay:10.37,2013-07-24 10:19:00,
2013-07-24 05:24:00,54.7,46.2,29.78,North,355,0.0,0.0,73,0.00,CLR,SKC,0.00,WeatherDisplay:10.37,2013-07-24 10:24:00,
2013-07-24 05:29:00,54.9,46.4,29.78,North,355,0.0,0.0,73,0.00,CLR,SKC,0.00,WeatherDisplay:10.37,2013-07-24 10:29:00,
2013-07-24 05:34:00,55.1,46.6,29.79,North,355,0.0,0.0,73,0.00,CLR,SKC,0.00,WeatherDisplay:10.37,2013-07-24 10:34:00,
2013-07-24 05:39:00,55.3,47.2,29.79,North,355,0.0,0.0,74,0.00,CLR,SKC,0.00,WeatherDisplay:10.37,2013-07-24 10:39:00,
2013-07-24 05:44:00,55.3,47.2,29.79,North,355,0.0,0.0,74,0.00,CLR,SKC,0.00,WeatherDisplay:10.37,2013-07-24 10:44:00,
2013-07-24 05:49:00,55.3,47.2,29.79,North,355,0.0,0.0,74,0.00,CLR,SKC,0.00,WeatherDisplay:10.37,2013-07-24 10:49:00,
2013-07-24 05:54:00,55.4,47.2,29.79,North,355,0.0,0.0,74,0.00,CLR,SKC,0.00,WeatherDisplay:10.37,2013-07-24 10:54:00,
2013-07-24 05:59:00,55.5,47.3,29.79,North,355,0.0,0.0,74,0.00,CLR,SKC,0.00,WeatherDisplay:10.37,2013-07-24 10:59:00,
2013-07-24 06:04:00,55.6,47.4,29.79,North,355,0.0,0.0,74,0.00,CLR,SKC,0.00,WeatherDisplay:10.37,2013-07-24 11:04:00,
2013-07-24 06:09:00,55.9,47.4,29.79,North,355,0.0,0.0,73,0.00,CLR,SKC,0.00,WeatherDisplay:10.37,2013-07-24 11:09:00,
2013-07-24 06:14:00,56.1,47.9,29.80,North,355,0.0,0.0,74,0.00,CLR,SKC,0.00,WeatherDisplay:10.37,2013-07-24 11:14:00,
2013-07-24 06:16:00,56.2,48.0,29.80,North,355,0.0,0.0,74,0.00,CLR,SKC,0.00,WeatherDisplay:10.37,2013-07-24 11:16:00,
2013-07-24 06:22:00,56.3,48.5,29.80,North,355,0.0,0.0,75,0.00,CLR,SKC,0.00,WeatherDisplay:10.37,2013-07-24 11:22:00,
2013-07-24 06:27:00,56.3,48.5,29.80,North,355,0.0,0.0,75,0.00,CLR,SKC,0.00,WeatherDisplay:10.37,2013-07-24 11:27:00,
2013-07-24 06:32:00,56.3,48.5,29.80,North,355,0.0,0.0,75,0.00,CLR,SKC,0.00,WeatherDisplay:10.37,2013-07-24 11:32:00,
2013-07-24 06:37:00,56.4,48.6,29.80,North,355,0.0,0.0,75,0.00,CLR,SKC,0.00,WeatherDisplay:10.37,2013-07-24 11:37:00,
2013-07-24 06:42:00,56.5,48.7,29.80,North,355,0.0,0.0,75,0.00,CLR,SKC,0.00,WeatherDisplay:10.37,2013-07-24 11:42:00,
2013-07-24 06:47:00,56.6,48.8,29.80,North,355,0.0,0.0,75,0.00,CLR,SKC,0.00,WeatherDisplay:10.37,2013-07-24 11:47:00,
2013-07-24 06:52:00,56.7,48.9,29.80,North,355,0.0,0.0,75,0.00,CLR,SKC,0.00,WeatherDisplay:10.37,2013-07-24 11:52:00,
2013-07-24 06:57:00,56.8,49.0,29.81,North,355,0.0,0.0,75,0.00,CLR,SKC,0.00,WeatherDisplay:10.37,2013-07-24 11:57:00,
2013-07-24 07:02:00,56.9,49.1,29.81,North,355,0.0,0.0,75,0.00,CLR,SKC,0.00,WeatherDisplay:10.37,2013-07-24 12:02:00,
2013-07-24 07:07:00,57.2,49.3,29.81,North,355,0.0,0.0,75,0.00,CLR,SKC,0.00,WeatherDisplay:10.37,2013-07-24 12:07:00,
2013-07-24 07:12:00,57.4,49.5,29.81,North,355,0.0,0.0,75,0.00,CLR,SKC,0.00,WeatherDisplay:10.37,2013-07-24 12:12:00,
2013-07-24 07:17:00,57.7,49.8,29.81,North,355,0.0,0.0,75,0.00,CLR,SKC,0.00,WeatherDisplay:10.37,2013-07-24 12:17:00,
2013-07-24 07:22:00,57.9,49.7,29.81,North,355,0.0,0.0,74,0.00,SCT,SKC,0.00,WeatherDisplay:10.37,2013-07-24 12:22:00,
2013-07-24 07:28:00,58.3,50.0,29.81,North,355,0.0,1.2,74,0.00,SCT,SKC,0.00,WeatherDisplay:10.37,2013-07-24 12:28:00,
2013-07-24 07:33:00,58.6,50.7,29.81,North,355,0.1,1.2,75,0.00,SCT,SKC,0.00,WeatherDisplay:10.37,2013-07-24 12:33:00,
2013-07-24 07:38:00,58.9,51.0,29.81,North,355,0.0,1.2,75,0.00,SCT,SKC,0.00,WeatherDisplay:10.37,2013-07-24 12:38:00,
2013-07-24 07:43:00,59.1,51.2,29.81,North,355,0.5,2.3,75,0.00,SCT,SKC,0.00,WeatherDisplay:10.37,2013-07-24 12:43:00,
2013-07-24 07:48:00,59.4,51.8,29.81,North,355,0.4,2.3,76,0.00,SCT,SKC,0.00,WeatherDisplay:10.37,2013-07-24 12:48:00,
2013-07-24 07:53:00,59.6,52.0,29.82,North,355,0.3,2.3,76,0.00,SCT,SKC,0.00,WeatherDisplay:10.37,2013-07-24 12:53:00,
2013-07-24 07:58:00,59.8,51.9,29.81,North,355,0.3,1.2,75,0.00,SCT,SKC,0.00,WeatherDisplay:10.37,2013-07-24 12:58:00,
2013-07-24 08:03:00,60.1,52.1,29.81,North,355,1.8,3.0,75,0.00,CLR,SKC,0.00,WeatherDisplay:10.37,2013-07-24 13:03:00,
2013-07-24 08:08:00,60.2,52.6,29.81,North,355,1.1,2.3,76,0.00,CLR,SKC,0.00,WeatherDisplay:10.37,2013-07-24 13:08:00,
2013-07-24 08:13:00,60.3,52.7,29.82,North,355,0.0,0.0,76,0.00,CLR,SKC,0.00,WeatherDisplay:10.37,2013-07-24 13:13:00,
2013-07-24 08:18:00,60.4,52.8,29.82,North,355,0.0,0.0,76,0.00,CLR,SKC,0.00,WeatherDisplay:10.37,2013-07-24 13:18:00,
2013-07-24 08:23:00,60.6,52.6,29.81,North,355,0.8,2.3,75,0.00,CLR,SKC,0.00,WeatherDisplay:10.37,2013-07-24 13:23:00,
2013-07-24 08:28:00,60.9,52.9,29.81,North,355,2.1,3.5,75,0.00,CLR,SKC,0.00,WeatherDisplay:10.37,2013-07-24 13:28:00,
2013-07-24 08:33:00,61.2,53.6,29.81,North,355,0.5,3.5,76,0.00,CLR,SKC,0.00,WeatherDisplay:10.37,2013-07-24 13:33:00,
2013-07-24 08:38:00,61.5,53.9,29.82,North,355,1.1,2.3,76,0.00,CLR,SKC,0.00,WeatherDisplay:10.37,2013-07-24 13:38:00,
2013-07-24 08:43:00,61.9,53.9,29.82,North,355,0.8,2.0,75,0.00,CLR,SKC,0.00,WeatherDisplay:10.37,2013-07-24 13:43:00,
2013-07-24 08:48:00,62.4,54.7,29.82,North,355,0.0,2.3,76,0.00,CLR,SKC,0.00,WeatherDisplay:10.37,2013-07-24 13:48:00,
2013-07-24 08:53:00,62.7,55.0,29.82,North,355,0.7,3.5,76,0.00,CLR,SKC,0.00,WeatherDisplay:10.37,2013-07-24 13:53:00,
2013-07-24 08:58:00,63.0,55.7,29.82,North,355,1.5,3.5,77,0.00,CLR,SKC,0.00,WeatherDisplay:10.37,2013-07-24 13:58:00,
2013-07-24 09:03:00,63.2,55.9,29.82,North,355,2.4,4.0,77,0.00,CLR,SKC,0.00,WeatherDisplay:10.37,2013-07-24 14:03:00,
2013-07-24 09:08:00,63.3,55.6,29.82,North,355,0.7,3.5,76,0.00,CLR,SKC,0.00,WeatherDisplay:10.37,2013-07-24 14:08:00,
2013-07-24 09:13:00,63.5,56.2,29.82,North,355,1.0,2.3,77,0.00,CLR,SKC,0.00,WeatherDisplay:10.37,2013-07-24 14:13:00,
2013-07-24 09:18:00,63.8,56.1,29.82,North,355,0.1,2.0,76,0.00,CLR,SKC,0.00,WeatherDisplay:10.37,2013-07-24 14:18:00,
2013-07-24 09:23:00,64.1,56.4,29.82,NNE,29,0.0,2.3,76,0.00,CLR,SKC,0.00,WeatherDisplay:10.37,2013-07-24 14:23:00,
2013-07-24 09:28:00,64.6,56.9,29.82,NNE,29,0.0,2.3,76,0.00,CLR,SKC,0.00,WeatherDisplay:10.37,2013-07-24 14:28:00,
2013-07-24 09:33:00,65.0,56.9,29.82,NNE,29,1.4,3.5,75,0.00,CLR,SKC,0.00,WeatherDisplay:10.37,2013-07-24 14:33:00,
2013-07-24 09:38:00,65.4,57.6,29.82,NNE,29,0.0,1.2,76,0.00,CLR,SKC,0.00,WeatherDisplay:10.37,2013-07-24 14:38:00,
2013-07-24 09:43:00,65.9,57.7,29.82,NNE,29,0.0,0.0,75,0.00,CLR,SKC,0.00,WeatherDisplay:10.37,2013-07-24 14:43:00,
2013-07-24 09:48:00,66.5,58.7,29.82,NNE,29,0.7,2.3,76,0.00,CLR,SKC,0.00,WeatherDisplay:10.37,2013-07-24 14:48:00,
2013-07-24 09:53:00,67.1,57.8,29.82,NNE,29,0.7,2.3,72,0.00,CLR,SKC,0.00,WeatherDisplay:10.37,2013-07-24 14:53:00,
2013-07-24 09:58:00,67.4,58.4,29.82,NNE,29,0.0,0.0,73,0.00,CLR,SKC,0.00,WeatherDisplay:10.37,2013-07-24 14:58:00,
2013-07-24 10:03:00,67.2,57.9,29.82,NNE,29,0.0,1.2,72,0.00,CLR,SKC,0.00,WeatherDisplay:10.37,2013-07-24 15:03:00,
2013-07-24 10:08:00,67.3,58.7,29.82,NNE,29,0.0,0.0,74,0.00,CLR,SKC,0.00,WeatherDisplay:10.37,2013-07-24 15:08:00,
2013-07-24 10:13:00,67.4,58.4,29.82,NNE,29,0.0,0.0,73,0.00,CLR,SKC,0.00,WeatherDisplay:10.37,2013-07-24 15:13:00,
2013-07-24 10:18:00,68.5,59.5,29.82,NNE,29,0.5,3.5,73,0.00,CLR,SKC,0.00,WeatherDisplay:10.37,2013-07-24 15:18:00,
2013-07-24 10:23:00,68.9,59.1,29.82,NNE,29,0.0,1.2,71,0.00,-RA,SKC,0.00,WeatherDisplay:10.37,2013-07-24 15:23:00,
2013-07-24 10:28:00,68.9,59.1,29.82,NNE,29,0.0,2.3,71,0.00,-RA,SKC,0.00,WeatherDisplay:10.37,2013-07-24 15:28:00,
2013-07-24 10:33:00,69.2,58.6,29.82,NNE,29,0.6,2.3,69,0.00,-RA,SKC,0.00,WeatherDisplay:10.37,2013-07-24 15:33:00,
2013-07-24 10:39:00,69.5,59.3,29.82,NNE,29,0.1,3.5,70,0.00,-RA,SKC,0.00,WeatherDisplay:10.37,2013-07-24 15:39:00,
2013-07-24 10:44:00,69.6,59.4,29.81,NNE,29,0.2,1.2,70,0.00,SCT,SKC,0.00,WeatherDisplay:10.37,2013-07-24 15:44:00,
2013-07-24 10:49:00,69.8,58.8,29.82,ENE,67,0.8,3.5,68,0.00,SCT,SKC,0.00,WeatherDisplay:10.37,2013-07-24 15:49:00,
2013-07-24 10:54:00,70.0,59.4,29.82,ENE,68,0.0,1.2,69,0.00,SCT,SKC,0.00,WeatherDisplay:10.37,2013-07-24 15:54:00,
2013-07-24 10:59:00,69.8,58.3,29.82,ENE,68,0.3,2.3,67,0.00,SCT,SKC,0.00,WeatherDisplay:10.37,2013-07-24 15:59:00,
2013-07-24 11:04:00,70.1,57.8,29.82,ENE,69,0.0,2.3,65,0.00,BKN,SKC,0.00,WeatherDisplay:10.37,2013-07-24 16:04:00,
2013-07-24 11:09:00,70.3,58.8,29.82,ENE,69,0.0,1.2,67,0.00,BKN,SKC,0.00,WeatherDisplay:10.37,2013-07-24 16:09:00,
2013-07-24 11:14:00,70.4,59.3,29.81,ENE,69,0.5,2.3,68,0.00,BKN,SKC,0.00,WeatherDisplay:10.37,2013-07-24 16:14:00,
2013-07-24 11:19:00,70.8,59.3,29.81,ENE,70,0.0,1.2,67,0.00,BKN,SKC,0.00,WeatherDisplay:10.37,2013-07-24 16:19:00,
2013-07-24 11:24:00,70.9,58.1,29.82,ENE,70,0.0,1.2,64,0.00,BKN,SKC,0.00,WeatherDisplay:10.37,2013-07-24 16:24:00,
2013-07-24 11:29:00,70.8,58.4,29.81,ENE,71,1.1,3.5,65,0.00,BKN,SKC,0.00,WeatherDisplay:10.37,2013-07-24 16:29:00,
2013-07-24 11:34:00,71.4,58.6,29.81,ENE,71,0.0,1.0,64,0.00,BKN,SKC,0.00,WeatherDisplay:10.37,2013-07-24 16:34:00,
2013-07-24 11:39:00,71.8,59.0,29.81,ESE,123,4.3,9.2,64,0.00,BKN,SKC,0.00,WeatherDisplay:10.37,2013-07-24 16:39:00,
2013-07-24 11:44:00,72.0,59.6,29.81,ESE,123,1.2,2.3,65,0.00,BKN,SKC,0.00,WeatherDisplay:10.37,2013-07-24 16:44:00,
2013-07-24 11:49:00,72.2,59.8,29.81,ESE,123,0.1,2.3,65,0.00,BKN,SKC,0.00,WeatherDisplay:10.37,2013-07-24 16:49:00,
2013-07-24 11:54:00,72.4,58.2,29.81,ESE,123,0.6,3.5,61,0.00,BKN,SKC,0.00,WeatherDisplay:10.37,2013-07-24 16:54:00,
2013-07-24 11:59:00,72.6,59.3,29.81,ESE,123,0.2,1.2,63,0.00,BKN,SKC,0.00,WeatherDisplay:10.37,2013-07-24 16:59:00,
2013-07-24 12:04:00,72.5,60.5,29.81,ESE,123,0.0,1.2,66,0.00,BKN,SKC,0.00,WeatherDisplay:10.37,2013-07-24 17:04:00,
2013-07-24 12:09:00,73.0,60.1,29.81,ESE,123,0.4,2.0,64,0.00,BKN,SKC,0.00,WeatherDisplay:10.37,2013-07-24 17:09:00,
2013-07-24 12:14:00,73.6,59.8,29.81,SE,124,0.0,3.5,62,0.00,BKN,SKC,0.00,WeatherDisplay:10.37,2013-07-24 17:14:00,
2013-07-24 12:19:00,73.6,61.5,29.81,SE,124,0.4,2.0,66,0.00,BKN,SKC,0.00,WeatherDisplay:10.37,2013-07-24 17:19:00,
2013-07-24 12:24:00,73.9,60.1,29.81,SE,124,0.2,1.2,62,0.00,OVC,SKC,0.00,WeatherDisplay:10.37,2013-07-24 17:24:00,
2013-07-24 12:29:00,74.2,62.1,29.81,SE,124,0.3,2.3,66,0.00,OVC,SKC,0.00,WeatherDisplay:10.37,2013-07-24 17:29:00,
2013-07-24 12:34:00,74.4,60.1,29.81,SE,124,0.0,2.3,61,0.00,OVC,SKC,0.00,WeatherDisplay:10.37,2013-07-24 17:34:00,
2013-07-24 12:39:00,74.7,60.8,29.80,SE,124,0.5,3.0,62,0.00,OVC,SKC,0.00,WeatherDisplay:10.37,2013-07-24 17:39:00,
2013-07-24 12:44:00,75.5,60.2,29.80,SE,140,1.4,5.8,59,0.00,OVC,SKC,0.00,WeatherDisplay:10.37,2013-07-24 17:44:00,
2013-07-24 12:49:00,75.7,60.4,29.80,SE,140,0.0,3.5,59,0.00,OVC,SKC,0.00,WeatherDisplay:10.37,2013-07-24 17:49:00,
2013-07-24 12:54:00,75.2,60.8,29.80,SE,140,0.2,1.2,61,0.00,BKN,SKC,0.00,WeatherDisplay:10.37,2013-07-24 17:54:00,
2013-07-24 12:59:00,74.7,60.8,29.80,SE,141,0.4,1.2,62,0.00,BKN,SKC,0.00,WeatherDisplay:10.37,2013-07-24 17:59:00,
2013-07-24 13:04:00,73.7,59.4,29.80,SE,141,0.0,2.3,61,0.00,BKN,SKC,0.00,WeatherDisplay:10.37,2013-07-24 18:04:00,
2013-07-24 13:09:00,73.3,59.5,29.80,SE,141,0.0,0.0,62,0.00,BKN,SKC,0.00,WeatherDisplay:10.37,2013-07-24 18:09:00,
2013-07-24 13:14:00,72.6,59.3,29.80,SE,141,0.0,1.2,63,0.00,BKN,SKC,0.00,WeatherDisplay:10.37,2013-07-24 18:14:00,
2013-07-24 13:19:00,72.4,59.5,29.80,SE,141,0.0,1.2,64,0.00,BKN,SKC,0.00,WeatherDisplay:10.37,2013-07-24 18:19:00,
2013-07-24 13:24:00,72.8,59.9,29.80,SE,141,0.0,1.2,64,0.00,BKN,SKC,0.00,WeatherDisplay:10.37,2013-07-24 18:24:00,
2013-07-24 13:29:00,73.0,59.7,29.80,SE,141,0.0,0.0,63,0.00,BKN,SKC,0.00,WeatherDisplay:10.37,2013-07-24 18:29:00,
2013-07-24 13:34:00,72.6,59.7,29.80,SE,141,0.1,1.0,64,0.00,BKN,SKC,0.00,WeatherDisplay:10.37,2013-07-24 18:34:00,
2013-07-24 13:39:00,72.6,59.3,29.80,SE,141,0.0,0.0,63,0.00,BKN,SKC,0.00,WeatherDisplay:10.37,2013-07-24 18:39:00,
2013-07-24 13:44:00,72.6,58.8,29.80,SE,141,1.0,3.5,62,0.00,SCT,SKC,0.00,WeatherDisplay:10.37,2013-07-24 18:44:00,
2013-07-24 13:49:00,72.5,58.7,29.80,SE,141,0.0,1.2,62,0.00,SCT,SKC,0.00,WeatherDisplay:10.37,2013-07-24 18:49:00,
2013-07-24 13:54:00,72.4,58.2,29.79,SE,141,0.0,1.2,61,0.00,SCT,SKC,0.00,WeatherDisplay:10.37,2013-07-24 18:54:00,
2013-07-24 13:59:00,72.6,58.4,29.80,SE,141,0.0,1.2,61,0.00,SCT,SKC,0.00,WeatherDisplay:10.37,2013-07-24 18:59:00,
2013-07-24 14:04:00,72.6,58.4,29.79,SE,141,0.0,0.0,61,0.00,SCT,SKC,0.00,WeatherDisplay:10.37,2013-07-24 19:04:00,
2013-07-24 14:09:00,72.7,59.8,29.79,SE,141,0.0,0.0,64,0.00,SCT,SKC,0.00,WeatherDisplay:10.37,2013-07-24 19:09:00,
2013-07-24 14:14:00,73.0,61.0,29.79,SE,141,0.2,1.2,66,0.00,SCT,SKC,0.00,WeatherDisplay:10.37,2013-07-24 19:14:00,
2013-07-24 14:19:00,73.9,59.1,29.79,SE,141,0.2,2.3,60,0.00,SCT,SKC,0.00,WeatherDisplay:10.37,2013-07-24 19:19:00,
2013-07-24 14:24:00,74.8,61.8,29.79,SE,141,0.0,0.0,64,0.00,BKN,SKC,0.00,WeatherDisplay:10.37,2013-07-24 19:24:00,
2013-07-24 14:29:00,75.7,60.4,29.78,SE,141,0.0,1.2,59,0.00,BKN,SKC,0.00,WeatherDisplay:10.37,2013-07-24 19:29:00,
2013-07-24 14:34:00,76.7,60.8,29.78,SE,130,0.1,2.3,58,0.00,BKN,SKC,0.00,WeatherDisplay:10.37,2013-07-24 19:34:00,
2013-07-24 14:39:00,77.1,60.7,29.78,SE,131,0.2,2.0,57,0.00,BKN,SKC,0.00,WeatherDisplay:10.37,2013-07-24 19:39:00,
2013-07-24 14:44:00,77.5,60.6,29.78,SE,131,0.3,1.2,56,0.00,BKN,SKC,0.00,WeatherDisplay:10.37,2013-07-24 19:44:00,
2013-07-24 14:49:00,77.3,58.3,29.78,SE,131,0.6,2.3,52,0.00,BKN,SKC,0.00,WeatherDisplay:10.37,2013-07-24 19:49:00,
2013-07-24 14:54:00,76.9,59.0,29.78,SE,130,0.0,0.0,54,0.00,BKN,SKC,0.00,WeatherDisplay:10.37,2013-07-24 19:54:00,
2013-07-24 14:59:00,77.0,59.1,29.78,SE,131,2.4,5.0,54,0.00,BKN,SKC,0.00,WeatherDisplay:10.37,2013-07-24 19:59:00,
2013-07-24 15:04:00,77.0,60.6,29.78,SE,131,0.7,3.5,57,0.00,BKN,SKC,0.00,WeatherDisplay:10.37,2013-07-24 20:04:00,
2013-07-24 15:09:00,76.9,60.0,29.78,SE,131,0.3,3.5,56,0.00,BKN,SKC,0.00,WeatherDisplay:10.37,2013-07-24 20:09:00,
2013-07-24 15:14:00,76.9,60.5,29.77,SE,131,1.2,3.5,57,0.00,BKN,SKC,0.00,WeatherDisplay:10.37,2013-07-24 20:14:00,
2013-07-24 15:19:00,76.9,57.9,29.77,SE,131,0.1,1.2,52,0.00,BKN,SKC,0.00,WeatherDisplay:10.37,2013-07-24 20:19:00,
2013-07-24 15:24:00,77.1,61.2,29.77,SE,131,0.0,2.3,58,0.00,SCT,SKC,0.00,WeatherDisplay:10.37,2013-07-24 20:24:00,
2013-07-24 15:29:00,77.3,60.9,29.77,SE,131,0.1,1.2,57,0.00,SCT,SKC,0.00,WeatherDisplay:10.37,2013-07-24 20:29:00,
2013-07-24 15:34:00,77.8,60.3,29.77,SE,131,0.7,3.5,55,0.00,SCT,SKC,0.00,WeatherDisplay:10.37,2013-07-24 20:34:00,
2013-07-24 15:51:00,77.6,60.2,29.77,SE,131,0.0,6.0,55,0.00,CLR,SKC,0.00,WeatherDisplay:10.37,2013-07-24 20:51:00,
2013-07-24 15:56:00,76.9,61.0,29.76,SE,131,0.0,0.0,58,0.00,CLR,SKC,0.00,WeatherDisplay:10.37,2013-07-24 20:56:00,
2013-07-24 16:01:00,76.5,60.1,29.76,SE,131,0.0,0.0,57,0.00,CLR,SKC,0.00,WeatherDisplay:10.37,2013-07-24 21:01:00,
2013-07-24 16:06:00,76.2,59.4,29.76,SE,131,0.0,0.0,56,0.00,CLR,SKC,0.00,WeatherDisplay:10.37,2013-07-24 21:06:00,
2013-07-24 16:12:00,76.2,60.8,29.76,SE,131,1.4,3.5,59,0.00,CLR,SKC,0.00,WeatherDisplay:10.37,2013-07-24 21:12:00,
2013-07-24 16:17:00,75.8,60.9,29.76,SE,131,0.0,1.2,60,0.00,CLR,SKC,0.00,WeatherDisplay:10.37,2013-07-24 21:17:00,
2013-07-24 16:22:00,75.3,60.5,29.76,SE,131,0.9,2.3,60,0.00,SCT,SKC,0.00,WeatherDisplay:10.37,2013-07-24 21:22:00,
2013-07-24 16:27:00,74.9,61.9,29.76,SE,131,0.1,1.2,64,0.00,SCT,SKC,0.00,WeatherDisplay:10.37,2013-07-24 21:27:00,
2013-07-24 16:32:00,74.6,59.8,29.76,SE,131,0.0,0.0,60,0.00,SCT,SKC,0.00,WeatherDisplay:10.37,2013-07-24 21:32:00,
2013-07-24 16:37:00,74.4,59.1,29.75,SE,131,0.1,1.2,59,0.00,SCT,SKC,0.00,WeatherDisplay:10.37,2013-07-24 21:37:00,
2013-07-24 16:42:00,74.2,60.3,29.75,SE,131,0.0,0.0,62,0.00,BKN,SKC,0.00,WeatherDisplay:10.37,2013-07-24 21:42:00,
2013-07-24 16:47:00,74.1,59.3,29.75,SE,131,0.0,0.0,60,0.00,BKN,SKC,0.00,WeatherDisplay:10.37,2013-07-24 21:47:00,
2013-07-24 16:52:00,74.3,58.1,29.75,SE,131,0.0,1.2,57,0.00,BKN,SKC,0.00,WeatherDisplay:10.37,2013-07-24 21:52:00,
2013-07-24 16:57:00,74.6,58.8,29.75,SE,131,0.1,1.0,58,0.00,BKN,SKC,0.00,WeatherDisplay:10.37,2013-07-24 21:57:00,
2013-07-24 17:02:00,74.6,58.8,29.75,SE,131,0.1,1.0,58,0.00,BKN,SKC,0.00,WeatherDisplay:10.37,2013-07-24 22:02:00,
2013-07-24 17:07:00,74.5,60.2,29.75,SE,131,0.2,1.2,61,0.00,BKN,SKC,0.00,WeatherDisplay:10.37,2013-07-24 22:07:00,
2013-07-24 17:12:00,74.4,60.5,29.75,SE,131,0.1,1.0,62,0.00,BKN,SKC,0.00,WeatherDisplay:10.37,2013-07-24 22:12:00,
2013-07-24 17:17:00,74.4,60.5,29.75,SE,131,1.9,3.5,62,0.00,BKN,SKC,0.00,WeatherDisplay:10.37,2013-07-24 22:17:00,
2013-07-24 17:22:00,74.2,60.3,29.75,SE,131,1.1,2.3,62,0.00,BKN,SKC,0.00,WeatherDisplay:10.37,2013-07-24 22:22:00,
2013-07-24 17:27:00,74.1,60.7,29.75,SE,131,0.1,1.2,63,0.00,BKN,SKC,0.00,WeatherDisplay:10.37,2013-07-24 22:27:00,
2013-07-24 17:32:00,74.2,60.3,29.75,SE,131,0.3,2.3,62,0.00,BKN,SKC,0.00,WeatherDisplay:10.37,2013-07-24 22:32:00,
2013-07-24 17:37:00,74.2,59.9,29.75,SE,131,1.1,3.0,61,0.00,BKN,SKC,0.00,WeatherDisplay:10.37,2013-07-24 22:37:00,
2013-07-24 17:42:00,74.1,58.9,29.74,SE,131,0.0,1.2,59,0.00,SCT,SKC,0.00,WeatherDisplay:10.37,2013-07-24 22:42:00,
2013-07-24 17:47:00,74.2,59.9,29.74,SE,131,0.4,2.3,61,0.00,SCT,SKC,0.00,WeatherDisplay:10.37,2013-07-24 22:47:00,
2013-07-24 17:52:00,74.4,60.5,29.74,SE,131,0.1,1.0,62,0.00,SCT,SKC,0.00,WeatherDisplay:10.37,2013-07-24 22:52:00,
2013-07-24 17:57:00,74.6,58.8,29.74,SE,131,0.0,0.0,58,0.00,SCT,SKC,0.00,WeatherDisplay:10.37,2013-07-24 22:57:00,
2013-07-24 18:02:00,74.8,60.4,29.74,SE,131,0.0,0.0,61,0.00,SCT,SKC,0.00,WeatherDisplay:10.37,2013-07-24 23:02:00,
2013-07-24 18:07:00,75.1,59.8,29.74,SE,133,0.0,0.0,59,0.00,SCT,SKC,0.00,WeatherDisplay:10.37,2013-07-24 23:07:00,
2013-07-24 18:12:00,75.5,58.7,29.74,SE,133,0.0,0.0,56,0.00,SCT,SKC,0.00,WeatherDisplay:10.37,2013-07-24 23:12:00,
2013-07-24 18:17:00,75.8,58.5,29.74,SE,133,0.0,0.0,55,0.00,SCT,SKC,0.00,WeatherDisplay:10.37,2013-07-24 23:17:00,
2013-07-24 18:22:00,75.8,59.0,29.74,SE,133,0.0,0.0,56,0.00,CLR,SKC,0.00,WeatherDisplay:10.37,2013-07-24 23:22:00,
2013-07-24 18:27:00,75.8,59.5,29.74,SE,133,0.1,1.2,57,0.00,CLR,SKC,0.00,WeatherDisplay:10.37,2013-07-24 23:27:00,
2013-07-24 18:32:00,75.6,60.3,29.74,SE,133,0.2,1.2,59,0.00,CLR,SKC,0.00,WeatherDisplay:10.37,2013-07-24 23:32:00,
2013-07-24 18:37:00,75.3,59.5,29.74,SE,133,0.0,0.0,58,0.00,CLR,SKC,0.00,WeatherDisplay:10.37,2013-07-24 23:37:00,
2013-07-24 18:42:00,75.5,59.2,29.74,SE,133,0.0,0.0,57,0.00,CLR,SKC,0.00,WeatherDisplay:10.37,2013-07-24 23:42:00,
2013-07-24 18:47:00,75.5,60.6,29.74,SE,133,0.1,1.2,60,0.00,CLR,SKC,0.00,WeatherDisplay:10.37,2013-07-24 23:47:00,
2013-07-24 18:52:00,75.4,60.5,29.74,SE,133,1.0,2.3,60,0.00,CLR,SKC,0.00,WeatherDisplay:10.37,2013-07-24 23:52:00,
2013-07-24 18:57:00,75.2,60.8,29.74,SE,133,0.1,1.2,61,0.00,CLR,SKC,0.00,WeatherDisplay:10.37,2013-07-24 23:57:00,
2013-07-24 19:02:00,75.0,61.1,29.74,SE,133,1.1,2.3,62,0.00,SCT,SKC,0.00,WeatherDisplay:10.37,2013-07-25 00:02:00,
2013-07-24 19:07:00,74.6,60.7,29.74,SE,133,3.1,4.0,62,0.00,SCT,SKC,0.00,WeatherDisplay:10.37,2013-07-25 00:07:00,
2013-07-24 19:12:00,74.2,60.3,29.74,SE,133,1.4,3.5,62,0.00,SCT,SKC,0.00,WeatherDisplay:10.37,2013-07-25 00:12:00,
2013-07-24 19:17:00,73.9,60.5,29.74,SE,133,0.3,1.2,63,0.00,SCT,SKC,0.00,WeatherDisplay:10.37,2013-07-25 00:17:00,
2013-07-24 19:22:00,73.6,60.7,29.73,SE,133,2.1,3.5,64,0.00,CLR,SKC,0.00,WeatherDisplay:10.37,2013-07-25 00:22:00,
2013-07-24 19:27:00,73.3,60.4,29.73,SE,133,0.3,3.5,64,0.00,CLR,SKC,0.00,WeatherDisplay:10.37,2013-07-25 00:27:00,
2013-07-24 19:32:00,73.1,61.1,29.74,SE,133,0.2,2.3,66,0.00,CLR,SKC,0.00,WeatherDisplay:10.37,2013-07-25 00:32:00,
2013-07-24 19:38:00,72.9,61.3,29.74,SE,133,0.2,1.2,67,0.00,CLR,SKC,0.00,WeatherDisplay:10.37,2013-07-25 00:38:00,
2013-07-24 19:43:00,72.7,59.8,29.73,SE,133,0.0,0.0,64,0.00,CLR,SKC,0.00,WeatherDisplay:10.37,2013-07-25 00:43:00,
2013-07-24 19:48:00,72.6,60.6,29.74,SE,133,0.0,0.0,66,0.00,CLR,SKC,0.00,WeatherDisplay:10.37,2013-07-25 00:48:00,
2013-07-24 19:53:00,72.5,59.6,29.74,SE,133,0.1,1.2,64,0.00,CLR,SKC,0.00,WeatherDisplay:10.37,2013-07-25 00:53:00,
2013-07-24 19:58:00,72.4,60.8,29.74,SE,133,0.0,1.2,67,0.00,CLR,SKC,0.00,WeatherDisplay:10.37,2013-07-25 00:58:00,
2013-07-24 20:03:00,72.2,60.2,29.74,SE,133,0.0,0.0,66,0.00,CLR,SKC,0.00,WeatherDisplay:10.37,2013-07-25 01:03:00,
2013-07-24 20:08:00,72.0,60.4,29.74,SE,133,0.0,0.0,67,0.00,CLR,SKC,0.00,WeatherDisplay:10.37,2013-07-25 01:08:00,
2013-07-24 20:13:00,71.8,60.2,29.74,SE,133,0.0,0.0,67,0.00,CLR,SKC,0.00,WeatherDisplay:10.37,2013-07-25 01:13:00,
2013-07-24 20:18:00,71.5,60.4,29.74,SE,133,0.0,0.0,68,0.00,CLR,SKC,0.00,WeatherDisplay:10.37,2013-07-25 01:18:00,
2013-07-24 20:23:00,71.3,60.6,29.74,SE,133,0.0,1.2,69,0.00,CLR,SKC,0.00,WeatherDisplay:10.37,2013-07-25 01:23:00,
2013-07-24 20:28:00,71.0,60.3,29.74,SE,133,0.0,0.0,69,0.00,CLR,SKC,0.00,WeatherDisplay:10.37,2013-07-25 01:28:00,
2013-07-24 20:33:00,70.7,60.0,29.74,SE,133,0.0,0.0,69,0.00,CLR,SKC,0.00,WeatherDisplay:10.37,2013-07-25 01:33:00,
2013-07-24 20:39:00,70.3,60.1,29.74,SE,133,0.0,0.0,70,0.00,CLR,SKC,0.00,WeatherDisplay:10.37,2013-07-25 01:39:00,
2013-07-24 20:44:00,69.8,59.6,29.74,SE,133,0.4,2.3,70,0.00,CLR,SKC,0.00,WeatherDisplay:10.37,2013-07-25 01:44:00,
2013-07-24 20:49:00,69.3,58.7,29.74,SE,133,1.8,3.5,69,0.00,CLR,SKC,0.00,WeatherDisplay:10.37,2013-07-25 01:49:00,
2013-07-24 20:54:00,69.0,58.8,29.74,SE,133,1.6,3.5,70,0.00,CLR,SKC,0.00,WeatherDisplay:10.37,2013-07-25 01:54:00,
2013-07-24 20:59:00,68.6,58.0,29.74,SE,133,0.1,2.3,69,0.00,CLR,SKC,0.00,WeatherDisplay:10.37,2013-07-25 01:59:00,
2013-07-24 21:04:00,68.4,58.6,29.74,SE,133,0.1,1.2,71,0.00,CLR,SKC,0.00,WeatherDisplay:10.37,2013-07-25 02:04:00,
2013-07-24 21:09:00,68.3,58.1,29.74,SE,133,0.6,2.3,70,0.00,CLR,SKC,0.00,WeatherDisplay:10.37,2013-07-25 02:09:00,
2013-07-24 21:14:00,68.1,57.9,29.74,SE,133,2.7,3.5,70,0.00,CLR,SKC,0.00,WeatherDisplay:10.37,2013-07-25 02:14:00,
2013-07-24 21:19:00,68.0,57.8,29.74,SE,133,0.0,1.2,70,0.00,CLR,SKC,0.00,WeatherDisplay:10.37,2013-07-25 02:19:00,
2013-07-24 21:24:00,67.8,57.7,29.74,SE,133,0.0,1.2,70,0.00,CLR,SKC,0.00,WeatherDisplay:10.37,2013-07-25 02:24:00,
2013-07-24 21:29:00,67.7,58.0,29.74,SE,133,0.0,0.0,71,0.00,CLR,SKC,0.00,WeatherDisplay:10.37,2013-07-25 02:29:00,
2013-07-24 21:34:00,67.6,57.9,29.74,SE,133,0.4,2.0,71,0.00,CLR,SKC,0.00,WeatherDisplay:10.37,2013-07-25 02:34:00,
2013-07-24 21:39:00,67.4,57.7,29.74,SE,133,1.2,2.3,71,0.00,CLR,SKC,0.00,WeatherDisplay:10.37,2013-07-25 02:39:00,
2013-07-24 21:44:00,67.3,57.6,29.74,SE,133,0.3,2.0,71,0.00,CLR,SKC,0.00,WeatherDisplay:10.37,2013-07-25 02:44:00,
2013-07-24 21:49:00,67.2,57.9,29.75,SE,133,0.0,0.0,72,0.00,CLR,SKC,0.00,WeatherDisplay:10.37,2013-07-25 02:49:00,
2013-07-24 21:54:00,67.0,57.7,29.75,SE,133,0.8,2.3,72,0.00,CLR,SKC,0.00,WeatherDisplay:10.37,2013-07-25 02:54:00,
2013-07-24 21:59:00,66.7,57.4,29.75,SE,133,1.2,2.3,72,0.00,CLR,SKC,0.00,WeatherDisplay:10.37,2013-07-25 02:59:00,
2013-07-24 22:04:00,66.4,57.5,29.75,SE,133,0.3,2.3,73,0.00,CLR,SKC,0.00,WeatherDisplay:10.37,2013-07-25 03:04:00,
2013-07-24 22:09:00,66.2,57.3,29.75,SE,133,0.0,3.5,73,0.00,CLR,SKC,0.00,WeatherDisplay:10.37,2013-07-25 03:09:00,
2013-07-24 22:14:00,66.0,57.1,29.75,SE,133,0.0,0.0,73,0.00,CLR,SKC,0.00,WeatherDisplay:10.37,2013-07-25 03:14:00,
2013-07-24 22:19:00,65.7,57.2,29.75,SE,133,0.2,2.3,74,0.00,CLR,SKC,0.00,WeatherDisplay:10.37,2013-07-25 03:19:00,
2013-07-24 22:24:00,65.5,57.0,29.75,SE,133,0.6,1.2,74,0.00,CLR,SKC,0.00,WeatherDisplay:10.37,2013-07-25 03:24:00,
2013-07-24 22:30:00,65.3,56.8,29.75,SE,133,1.8,3.5,74,0.00,CLR,SKC,0.00,WeatherDisplay:10.37,2013-07-25 03:30:00,
2013-07-24 22:35:00,65.3,56.8,29.76,SE,133,1.9,3.5,74,0.00,CLR,SKC,0.00,WeatherDisplay:10.37,2013-07-25 03:35:00,
2013-07-24 22:40:00,65.3,57.2,29.76,SE,133,1.2,4.0,75,0.00,CLR,SKC,0.00,WeatherDisplay:10.37,2013-07-25 03:40:00,
2013-07-24 22:45:00,65.2,57.1,29.75,SE,133,2.7,3.5,75,0.00,CLR,SKC,0.00,WeatherDisplay:10.37,2013-07-25 03:45:00,
2013-07-24 22:50:00,65.1,57.0,29.76,SE,133,2.4,4.0,75,0.00,CLR,SKC,0.00,WeatherDisplay:10.37,2013-07-25 03:50:00,
2013-07-24 22:55:00,65.0,56.9,29.76,SE,133,2.5,4.6,75,0.00,CLR,SKC,0.00,WeatherDisplay:10.37,2013-07-25 03:55:00,
2013-07-24 23:01:00,65.0,56.9,29.75,SE,133,1.8,3.5,75,0.00,CLR,SKC,0.00,WeatherDisplay:10.37,2013-07-25 04:01:00,
2013-07-24 23:02:00,65.0,56.9,29.75,SE,133,0.4,3.5,75,0.00,CLR,SKC,0.00,WeatherDisplay:10.37,2013-07-25 04:02:00,
2013-07-24 23:03:00,64.9,56.8,29.75,SE,133,0.2,2.3,75,0.00,CLR,SKC,0.00,WeatherDisplay:10.37,2013-07-25 04:03:00,
2013-07-24 23:04:00,64.8,57.1,29.75,SE,133,0.8,2.0,76,0.00,CLR,SKC,0.00,WeatherDisplay:10.37,2013-07-25 04:04:00,
2013-07-24 23:09:00,64.5,56.8,29.76,SE,133,0.0,3.5,76,0.00,CLR,SKC,0.00,WeatherDisplay:10.37,2013-07-25 04:09:00,
2013-07-24 23:13:00,64.4,56.7,29.76,SE,133,2.0,3.5,76,0.00,CLR,SKC,0.00,WeatherDisplay:10.37,2013-07-25 04:13:00,
2013-07-24 23:18:00,64.4,56.7,29.75,SE,133,2.8,5.0,76,0.00,CLR,SKC,0.00,WeatherDisplay:10.37,2013-07-25 04:18:00,
2013-07-24 23:23:00,64.5,56.8,29.75,SE,133,2.7,4.0,76,0.00,CLR,SKC,0.00,WeatherDisplay:10.37,2013-07-25 04:23:00,
2013-07-24 23:28:00,64.5,56.8,29.75,SE,133,2.3,4.0,76,0.00,CLR,SKC,0.00,WeatherDisplay:10.37,2013-07-25 04:28:00,
2013-07-24 23:33:00,64.5,56.8,29.75,SE,133,2.0,4.0,76,0.00,CLR,SKC,0.00,WeatherDisplay:10.37,2013-07-25 04:33:00,
2013-07-24 23:38:00,64.5,56.8,29.75,SE,133,2.8,6.0,76,0.00,CLR,SKC,0.00,WeatherDisplay:10.37,2013-07-25 04:38:00,
2013-07-24 23:43:00,64.5,56.8,29.75,SE,140,3.3,5.8,76,0.00,CLR,SKC,0.00,WeatherDisplay:10.37,2013-07-25 04:43:00,
2013-07-24 23:48:00,64.4,56.7,29.75,SSE,150,3.8,6.0,76,0.00,CLR,SKC,0.00,WeatherDisplay:10.37,2013-07-25 04:48:00,
2013-07-24 23:53:00,64.2,56.5,29.75,SSE,158,3.3,5.0,76,0.00,CLR,SKC,0.00,WeatherDisplay:10.37,2013-07-25 04:53:00,
2013-07-24 23:58:00,64.0,56.3,29.75,SSE,164,4.2,7.0,76,0.00,CLR,SKC,0.00,WeatherDisplay:10.37,2013-07-25 04:58:00,